Regional Weather Roundup
Issued by NWS Cleveland, OH

Home | Current Version | Previous Version | Graphics & Text | Print | Product List | Glossary On
Versions: 1 2 3 4 5 6 7 8 9 10 11 12 13 14 15 16 17 18 19 20 21 22 23 24 25 26 27 28 29 30 31 32 33 34 35 36 37 38 39 40 41 42 43 44 45 46 47 48 49 50
000
ASUS41 KCLE 280902
RWRCLE
OHIO REGIONAL WEATHER ROUNDUP
NATIONAL WEATHER SERVICE CLEVELAND, OH
500 AM EDT FRI AUG 28 2015

NOTE: "FAIR" INDICATES FEW OR NO CLOUDS BELOW 12,000 FEET WITH NO
SIGNIFICANT WEATHER AND/OR OBSTRUCTIONS TO VISIBILITY.

OHZ001>008-015>018-024>027-034-035-043-044-281000-
   NORTHWEST OHIO

CITY           SKY/WX    TMP DP  RH WIND       PRES   REMARKS
DEFIANCE       PTCLDY    53  51  93 CALM      30.18R FOG
FINDLAY        CLEAR     56  53  90 CALM      30.16F
TOLEDO EXPRESS CLEAR     51  51 100 CALM      30.17S FOG
TOLEDO EXEC    CLEAR     55  52  89 CALM      30.18S
LIMA           CLEAR     54  52  93 CALM      30.17S FOG
$$

OHZ009>014-019>023-028>033-038-089-281000-
   NORTHEAST OHIO

CITY           SKY/WX    TMP DP  RH WIND       PRES   REMARKS
CLE-HOPKINS    CLEAR     53  51  93 CALM      30.21R
CLE-LAKEFRONT  CLEAR     58  53  84 S8        30.17R
CUY CO. ARPT   NOT AVBL
LORAIN-ELYRIA  CLEAR     51  49  92 SW3       30.20R FOG
ASHTABULA      FOG       48  48 100 CALM      30.20R VSB 1/2
AKRON-CANTON   CLEAR     55  52  89 CALM      30.19R
WOOSTER        FOG       47  46  97 CALM      30.20R VSB 1/2
MANSFIELD      CLEAR     53  53 100 S3        30.19R
YOUNGSTOWN     CLEAR     51  50  96 CALM      30.19R
$$

OHZ042-051>053-060>062-070>072-077>081-281000-
  SOUTHWEST OHIO

CITY           SKY/WX    TMP DP  RH WIND       PRES   REMARKS
CINC-COVINGTON CLEAR     60  55  83 N3        30.15R
CINC-LUNKEN    CLEAR     53  53 100 NE3       30.17R FOG
HAMILTON       CLEAR     52  50  93 CALM      30.17R FOG
DAYTON         CLEAR     57  56  96 CALM      30.17S
WRIGHT-PAT AFB CLEAR     56  55  95 CALM      30.16S
DAYTON GENERAL CLEAR     56  54  93 NE6       30.16R
WILMINGTON     CLEAR     53  50  89 N3        30.17R
$$

OHZ036-037-039>041-045>050-054>059-063>069-073>076-082>088-281000-
  CENTRAL AND SOUTHEAST OHIO

CITY           SKY/WX    TMP DP  RH WIND       PRES   REMARKS
COLUMBUS       CLEAR     59  55  87 CALM      30.16S
OSU AIRPORT    CLEAR     55  53  93 CALM      30.17R
BOLTON FIELD   NOT AVBL
RICKENBACK AFB NOT AVBL
NEWARK         FOG       52  50  93 CALM      30.17R VSB 3/4
MARION         CLEAR     53  51  93 CALM      30.18R FOG
LANCASTER      FOG       49  47  93 CALM      30.17S VSB 1/4
ZANESVILLE     CLEAR     53  50  89 CALM      30.17R FOG
NEW PHILLY     CLEAR     51  50  96 CALM      30.18S FOG
$$



USA.gov is the U.S. government's official web portal to all federal, state and local government web resources and services.